Powrót do katalogu

STARLINK-35412

AktywnyŁącznośćSSO
NORAD 65797·PAYLOAD·🇺🇸 United States

Wystrzelony Sep 26, 2025 z Vandenberg Space Force Base

Loading…

Następne Przeloty (najbliższe 24 godziny)

TLE

ŚwieżeSource: CelesTrak SupGP

Epoka: Sep 14, 2026, 14:59 UTC

1 65797C 25218G   26257.62479167  .00003036  00000+0  94271-4 0  2571
2 65797  97.2843 115.1257 0001713  90.2846 346.8798 15.33427343    13

Śledź STARLINK-35412 w czasie rzeczywistym z AllMySat

Download on the App Store